TimeMDT,TemperatureF,Dew PointF,Humidity,Sea Level PressureIn,VisibilityMPH,Wind Direction,Wind SpeedMPH,Gust SpeedMPH,PrecipitationIn,Events,Conditions,WindDirDegrees,DateUTC
12:53 AM,61.0,57.0,87,29.95,10.0,ESE,8.1,-,N/A,,Clear,110,2013-08-08 06:53:00
1:53 AM,60.1,57.0,90,29.96,10.0,East,5.8,-,N/A,,Clear,90,2013-08-08 07:53:00
2:53 AM,59.0,55.9,90,29.96,10.0,East,5.8,-,N/A,,Clear,90,2013-08-08 08:53:00
3:53 AM,57.9,55.9,93,29.96,10.0,South,5.8,-,N/A,,Clear,180,2013-08-08 09:53:00
4:36 AM,55.4,55.4,100,30.07,3.0,Calm,Calm,-,N/A,,Scattered Clouds,0,2013-08-08 10:36:00
4:39 AM,55.4,55.4,100,30.07,1.5,Calm,Calm,-,N/A,,Mostly Cloudy,0,2013-08-08 10:39:00
4:47 AM,55.4,55.4,100,30.07,0.2,Calm,Calm,-,N/A,Fog,Fog,0,2013-08-08 10:47:00
4:48 AM,55.9,55.0,97,29.96,0.2,Calm,Calm,-,N/A,Fog,Fog,0,2013-08-08 10:48:00
5:44 AM,55.4,55.4,100,30.09,0.5,Calm,Calm,-,N/A,Fog,Fog,0,2013-08-08 11:44:00
5:53 AM,55.9,55.0,97,29.99,1.5,ENE,3.5,-,N/A,,Overcast,70,2013-08-08 11:53:00
5:57 AM,57.2,55.4,94,30.10,3.0,ENE,3.5,-,N/A,,Overcast,70,2013-08-08 11:57:00
6:53 AM,57.9,55.9,93,30.00,6.0,ESE,4.6,-,N/A,,Partly Cloudy,110,2013-08-08 12:53:00
7:53 AM,62.1,57.9,86,29.99,10.0,South,3.5,-,N/A,,Clear,190,2013-08-08 13:53:00
8:53 AM,64.9,60.1,84,30.00,10.0,SSE,5.8,-,N/A,,Clear,160,2013-08-08 14:53:00
9:53 AM,69.1,59.0,70,30.00,10.0,South,4.6,-,N/A,,Partly Cloudy,180,2013-08-08 15:53:00
10:53 AM,72.0,60.1,66,30.01,10.0,Calm,Calm,-,N/A,,Clear,0,2013-08-08 16:53:00
11:31 AM,73.4,59.0,61,30.12,10.0,North,-9999.0,-,N/A,,Mostly Cloudy,0,2013-08-08 17:31:00
11:53 AM,73.9,60.1,62,30.00,10.0,North,-9999.0,-,N/A,,Mostly Cloudy,0,2013-08-08 17:53:00
12:53 PM,77.0,61.0,58,30.00,10.0,ESE,8.1,-,N/A,,Partly Cloudy,110,2013-08-08 18:53:00
1:53 PM,79.0,60.1,52,29.97,10.0,East,8.1,-,N/A,,Clear,100,2013-08-08 19:53:00
2:53 PM,82.0,52.0,35,29.95,10.0,East,6.9,-,N/A,,Clear,100,2013-08-08 20:53:00
3:53 PM,82.0,57.0,42,29.94,10.0,East,10.4,-,0.03,,Clear,90,2013-08-08 21:53:00
4:53 PM,82.9,57.0,41,29.94,10.0,ESE,9.2,-,0.07,,Clear,110,2013-08-08 22:53:00
5:53 PM,81.0,55.9,42,29.94,10.0,East,10.4,-,0.03,,Clear,100,2013-08-08 23:53:00
6:53 PM,77.0,60.1,56,29.95,10.0,East,8.1,-,N/A,,Clear,90,2013-08-09 00:53:00
7:53 PM,73.0,61.0,66,29.96,10.0,ESE,6.9,-,N/A,,Clear,110,2013-08-09 01:53:00
8:53 PM,71.1,60.1,68,30.00,10.0,ESE,8.1,-,N/A,,Clear,120,2013-08-09 02:53:00
9:31 PM,69.8,57.2,64,30.13,10.0,SE,16.1,26.5,N/A,Thunderstorm,Partly Cloudy,130,2013-08-09 03:31:00
9:46 PM,68.0,55.4,64,30.14,10.0,SE,13.8,-,N/A,,Scattered Clouds,130,2013-08-09 03:46:00
9:53 PM,68.0,55.9,65,30.03,10.0,SE,12.7,-,N/A,,Mostly Cloudy,140,2013-08-09 03:53:00
10:03 PM,68.0,55.4,64,30.14,10.0,SSE,10.4,-,N/A,Thunderstorm,Mostly Cloudy,150,2013-08-09 04:03:00
10:28 PM,68.0,55.4,64,30.13,10.0,SE,9.2,-,N/A,,Mostly Cloudy,140,2013-08-09 04:28:00
10:53 PM,64.0,55.9,75,30.02,10.0,East,6.9,-,N/A,,Clear,80,2013-08-09 04:53:00
11:53 PM,64.9,55.9,73,30.03,10.0,South,3.5,-,N/A,,Clear,190,2013-08-09 05:53:00